Tracking 29528 objects as of 14-Sep-2024
HD Live streaming from Space Station
objects crossing your sky now

FENGYUN 1C DEB

Track FENGYUN 1C DEB now!
10-day predictions


NORAD ID: 29885
Int'l Code: 1999-025GF
Perigee: 769.5 km
Apogee: 943.1 km
Inclination: 98.3 °
Period: 101.9 minutes
Semi major axis: 7227 km
RCS: 0.04 m2 (small)
Launch date: May 10, 1999
Source: People's Republic of China (PRC)
Launch site: Taiyaun Space Center, China (TSC)

Note: This is SATELLITE DEBRIS
Your satellite tracking list
Your tracking list is empty




NASA's NSSDC Master Catalog

Two Line Element Set (TLE):
1 29885U 99025GF  24257.41009095  .00002052  00000-0  10472-2 0  9990
2 29885  98.2935 217.7131 0120152  37.2556  83.7263 14.12992384910373
Source of the keplerian elements: AFSPC